Погода в Сампите

Индонезия     2°31′07″S   112°54′53″E
темп.,
°C
ветер,
м/с
пор.,
м/с
влажн.,
%
обл.,
%
осадки,
мм/ч
давл.,
гПа
погр.,
м
22 октября, пт
пт2223:00+24ююв149598 0.1 101297
02:00+24ююз119599 0.1 101019
05:00+23ююз009896 2.1 101014
08:00+25ююз0093100 3.5 101217
11:00+29ю2370100 2.0 1013828
14:00+32ююв2253100 2.1 10101902
17:00+26ссз2488100 1.6 1010119
20:00+23сз2896100 1.9 1012227
23 октября, сб
сб2323:00+23зсз1697100 0.1 1014220
02:00+23ссз1498100 0.2 1012167
05:00+23сз1298100 0.5 101269
08:00+24вюв0195100 0.5 101387
11:00+24св1193100 0.0 1013161
14:00+28юв117260 0.0 1010550
17:00+28ююз137137 0.0 1009363
20:00+24юз118721 0.0 101113
24 октября, вс
вс2423:00+23юз11928 0.0 101211
02:00+22ю009522 0.0 101012
05:00+22ю00986 0.0 101012
08:00+26зюз00816 0.0 1012272
11:00+33ю01541 0.0 10111237
14:00+34ююв124592 0.0 10082263
17:00+28ююв2675100 0.0 1007252
20:00+26ююв168296 0.0 1010190
25 октября, пн
пн2523:00+24ю1188100 0.0 101125
02:00+23юз019250 0.0 100912
05:00+23з019494 0.1 100912
08:00+26ююз117928 0.1 1011280
11:00+31юв126246 0.8 10101142
14:00+34юв124545 0.8 10062061
17:00+28ю2672100 0.0 1006319
20:00+26ююв2880100 0.0 1009299
26 октября, вт
вт2623:00+25ююв158480 0.0 1010162
02:00+24юв119115 0.0 100818
05:00+23вюв009810 1.1 100814
08:00+26в12905 1.9 1010174
11:00+32юв225653 0.9 10091249
14:00+34ююв124899 0.9 10051946
17:00+27ююв2777100 0.0 1006247
20:00+26ю1682100 0.0 1008200